Time,TemperatureF,DewpointF,PressureIn,WindDirection,WindDirectionDegrees,WindSpeedMPH,WindSpeedGustMPH,Humidity,HourlyPrecipIn,Conditions,Clouds,dailyrainin,SoftwareType,DateUTC
2013-05-02 00:01:00,50.2,38.1,29.96,East,90,0.0,2.5,63,0.00,,,0.00,WUHU216HW,2013-05-02 04:01:00,
2013-05-02 00:02:00,50.4,38.6,29.95,ENE,68,1.1,2.5,64,0.00,,,0.00,WUHU216HW,2013-05-02 04:02:00,
2013-05-02 00:06:00,50.8,39.0,29.95,ENE,68,0.4,1.3,64,0.00,,,0.00,WUHU216HW,2013-05-02 04:06:00,
2013-05-02 00:12:00,50.8,39.0,29.95,ENE,68,0.7,1.1,64,0.00,,,0.00,WUHU216HW,2013-05-02 04:12:00,
2013-05-02 00:17:00,50.4,37.8,29.96,SE,135,0.0,1.1,62,0.00,,,0.00,WUHU216HW,2013-05-02 04:17:00,
2013-05-02 00:22:00,49.9,37.7,29.96,ESE,113,0.0,1.1,63,0.00,,,0.00,WUHU216HW,2013-05-02 04:22:00,
2013-05-02 00:27:00,49.3,37.6,29.96,ESE,113,1.1,1.1,64,0.00,,,0.00,WUHU216HW,2013-05-02 04:27:00,
2013-05-02 00:32:00,48.8,36.4,29.96,ESE,113,0.0,1.1,62,0.00,,,0.00,WUHU216HW,2013-05-02 04:32:00,
2013-05-02 00:37:00,48.2,35.8,29.96,ESE,113,0.0,0.2,62,0.00,,,0.00,WUHU216HW,2013-05-02 04:37:00,
2013-05-02 00:42:00,47.7,35.7,29.96,ESE,113,0.0,0.0,63,0.00,,,0.00,WUHU216HW,2013-05-02 04:42:00,
2013-05-02 00:48:00,47.2,35.2,29.96,SSE,158,0.0,0.9,63,0.00,,,0.00,WUHU216HW,2013-05-02 04:48:00,
2013-05-02 00:53:00,46.8,34.8,29.96,SSE,158,0.0,0.9,63,0.00,,,0.00,WUHU216HW,2013-05-02 04:53:00,
2013-05-02 00:58:00,46.3,35.1,29.95,SSE,158,1.1,1.1,65,0.00,,,0.00,WUHU216HW,2013-05-02 04:58:00,
2013-05-02 01:03:00,45.9,35.2,29.95,South,180,0.0,1.3,66,0.00,,,0.00,WUHU216HW,2013-05-02 05:03:00,
2013-05-02 01:08:00,45.7,35.4,29.95,South,180,0.0,1.3,67,0.00,,,0.00,WUHU216HW,2013-05-02 05:08:00,
2013-05-02 01:13:00,45.5,35.6,29.95,South,180,0.0,0.9,68,0.00,,,0.00,WUHU216HW,2013-05-02 05:13:00,
2013-05-02 01:18:00,45.4,35.8,29.94,SSE,158,0.2,0.9,69,0.00,,,0.00,WUHU216HW,2013-05-02 05:18:00,
2013-05-02 01:23:00,45.2,35.7,29.94,SSW,203,0.7,1.1,69,0.00,,,0.00,WUHU216HW,2013-05-02 05:23:00,
2013-05-02 01:28:00,45.0,35.8,29.94,SSW,203,1.1,1.1,70,0.00,,,0.00,WUHU216HW,2013-05-02 05:28:00,
2013-05-02 01:34:00,44.8,36.0,29.94,WSW,248,0.2,1.6,71,0.00,,,0.00,WUHU216HW,2013-05-02 05:34:00,
2013-05-02 01:39:00,45.0,37.2,29.94,West,270,1.3,1.8,74,0.00,,,0.00,WUHU216HW,2013-05-02 05:39:00,
2013-05-02 01:44:00,47.2,39.2,29.94,West,270,4.7,4.7,74,0.00,,,0.00,WUHU216HW,2013-05-02 05:44:00,
2013-05-02 01:49:00,49.0,40.3,29.93,NW,315,2.9,4.7,72,0.00,,,0.00,WUHU216HW,2013-05-02 05:49:00,
2013-05-02 01:54:00,50.4,41.0,29.93,WSW,248,3.1,6.3,70,0.00,,,0.00,WUHU216HW,2013-05-02 05:54:00,
2013-05-02 01:59:00,51.3,41.1,29.93,SW,225,2.2,6.3,68,0.00,,,0.00,WUHU216HW,2013-05-02 05:59:00,
2013-05-02 02:04:00,51.3,40.7,29.93,West,270,1.3,4.7,67,0.00,,,0.00,WUHU216HW,2013-05-02 06:04:00,
2013-05-02 02:09:00,51.5,40.9,29.93,West,270,1.8,4.0,67,0.00,,,0.00,WUHU216HW,2013-05-02 06:09:00,
2013-05-02 02:14:00,51.8,41.2,29.93,WNW,293,4.3,6.0,67,0.00,,,0.00,WUHU216HW,2013-05-02 06:14:00,
2013-05-02 02:19:00,52.2,40.8,29.93,WSW,248,1.8,6.0,65,0.00,,,0.00,WUHU216HW,2013-05-02 06:19:00,
2013-05-02 02:24:00,52.4,41.0,29.93,West,270,3.4,5.4,65,0.00,,,0.00,WUHU216HW,2013-05-02 06:24:00,
2013-05-02 02:29:00,52.6,40.7,29.92,West,270,1.6,5.4,64,0.00,,,0.00,WUHU216HW,2013-05-02 06:29:00,
2013-05-02 02:35:00,52.6,40.7,29.92,NW,315,6.0,6.3,64,0.00,,,0.00,WUHU216HW,2013-05-02 06:35:00,
2013-05-02 02:40:00,52.6,40.7,29.92,WSW,248,4.7,7.6,64,0.00,,,0.00,WUHU216HW,2013-05-02 06:40:00,
2013-05-02 02:45:00,52.6,40.3,29.92,West,270,3.8,7.6,63,0.00,,,0.00,WUHU216HW,2013-05-02 06:45:00,
2013-05-02 02:50:00,52.6,40.3,29.92,West,270,4.0,6.0,63,0.00,,,0.00,WUHU216HW,2013-05-02 06:50:00,
2013-05-02 02:55:00,52.7,40.4,29.92,West,270,2.0,4.5,63,0.00,,,0.00,WUHU216HW,2013-05-02 06:55:00,
2013-05-02 03:00:00,52.6,40.3,29.92,West,270,1.6,4.3,63,0.00,,,0.00,WUHU216HW,2013-05-02 07:00:00,
2013-05-02 03:05:00,52.6,40.3,29.92,SSW,203,1.3,4.9,63,0.00,,,0.00,WUHU216HW,2013-05-02 07:05:00,
2013-05-02 03:10:00,52.9,40.6,29.92,West,270,3.8,4.9,63,0.00,,,0.00,WUHU216HW,2013-05-02 07:10:00,
2013-05-02 03:15:00,52.9,40.6,29.92,NW,315,4.9,4.9,63,0.00,,,0.00,WUHU216HW,2013-05-02 07:15:00,
2013-05-02 03:20:00,53.1,40.8,29.92,NW,315,3.4,5.4,63,0.00,,,0.00,WUHU216HW,2013-05-02 07:20:00,
2013-05-02 03:26:00,53.6,41.0,29.91,WSW,248,2.2,5.4,62,0.00,,,0.00,WUHU216HW,2013-05-02 07:26:00,
2013-05-02 03:31:00,53.5,40.3,29.91,WNW,293,2.7,5.6,61,0.00,,,0.00,WUHU216HW,2013-05-02 07:31:00,
2013-05-02 03:36:00,53.6,40.5,29.92,WNW,293,1.8,6.3,61,0.00,,,0.00,WUHU216HW,2013-05-02 07:36:00,
2013-05-02 03:41:00,53.6,40.1,29.92,WNW,293,1.8,6.3,60,0.00,,,0.00,WUHU216HW,2013-05-02 07:41:00,
2013-05-02 03:46:00,53.6,40.1,29.92,WNW,293,0.4,4.0,60,0.00,,,0.00,WUHU216HW,2013-05-02 07:46:00,
2013-05-02 03:51:00,53.6,39.7,29.92,NW,315,1.1,4.0,59,0.00,,,0.00,WUHU216HW,2013-05-02 07:51:00,
2013-05-02 03:56:00,53.6,39.7,29.91,NW,315,3.4,3.6,59,0.00,,,0.00,WUHU216HW,2013-05-02 07:56:00,
2013-05-02 04:01:00,53.5,39.5,29.91,West,270,2.5,3.6,59,0.00,,,0.00,WUHU216HW,2013-05-02 08:01:00,
2013-05-02 04:06:00,53.3,39.3,29.91,WNW,293,1.8,3.4,59,0.00,,,0.00,WUHU216HW,2013-05-02 08:06:00,
2013-05-02 04:11:00,53.1,39.2,29.91,WNW,293,1.3,2.7,59,0.00,,,0.00,WUHU216HW,2013-05-02 08:11:00,
2013-05-02 04:17:00,53.1,39.2,29.92,SW,225,0.4,2.9,59,0.00,,,0.00,WUHU216HW,2013-05-02 08:17:00,
2013-05-02 04:22:00,52.7,38.8,29.92,SSW,203,0.9,2.9,59,0.00,,,0.00,WUHU216HW,2013-05-02 08:22:00,
2013-05-02 04:27:00,52.4,38.9,29.92,SSW,203,0.7,1.8,60,0.00,,,0.00,WUHU216HW,2013-05-02 08:27:00,
2013-05-02 04:32:00,52.2,38.7,29.92,ESE,113,0.0,1.8,60,0.00,,,0.00,WUHU216HW,2013-05-02 08:32:00,
2013-05-02 04:37:00,51.8,38.8,29.92,SE,135,0.4,3.1,61,0.00,,,0.00,WUHU216HW,2013-05-02 08:37:00,
2013-05-02 04:42:00,51.5,38.9,29.92,East,90,0.2,3.1,62,0.00,,,0.00,WUHU216HW,2013-05-02 08:42:00,
2013-05-02 04:47:00,51.1,38.9,29.92,ESE,113,0.4,1.6,63,0.00,,,0.00,WUHU216HW,2013-05-02 08:47:00,
2013-05-02 04:52:00,50.6,38.0,29.92,SE,135,0.0,1.1,62,0.00,,,0.00,WUHU216HW,2013-05-02 08:52:00,
2013-05-02 04:57:00,50.0,37.9,29.92,SE,135,0.0,1.1,63,0.00,,,0.00,WUHU216HW,2013-05-02 08:57:00,
2013-05-02 05:02:00,49.5,37.5,29.92,SE,135,0.0,0.7,63,0.00,,,0.00,WUHU216HW,2013-05-02 09:02:00,
2013-05-02 05:07:00,49.0,37.3,29.92,SSE,158,0.0,0.9,64,0.00,,,0.00,WUHU216HW,2013-05-02 09:07:00,
2013-05-02 05:13:00,48.2,36.3,29.92,South,180,0.0,0.9,63,0.00,,,0.00,WUHU216HW,2013-05-02 09:13:00,
2013-05-02 05:18:00,47.7,35.7,29.92,South,180,0.0,0.2,63,0.00,,,0.00,WUHU216HW,2013-05-02 09:18:00,
2013-05-02 05:23:00,47.0,35.4,29.92,South,180,0.0,0.0,64,0.00,,,0.00,WUHU216HW,2013-05-02 09:23:00,
2013-05-02 05:28:00,46.4,35.3,29.92,South,180,0.0,0.0,65,0.00,,,0.00,WUHU216HW,2013-05-02 09:28:00,
2013-05-02 05:33:00,46.1,35.7,29.92,South,180,0.0,0.0,67,0.00,,,0.00,WUHU216HW,2013-05-02 09:33:00,
2013-05-02 05:38:00,45.7,35.4,29.92,South,180,0.0,0.0,67,0.00,,,0.00,WUHU216HW,2013-05-02 09:38:00,
2013-05-02 05:43:00,45.2,35.2,29.92,South,180,0.4,0.4,68,0.00,,,0.00,WUHU216HW,2013-05-02 09:43:00,
2013-05-02 05:49:00,45.0,35.1,29.92,South,180,0.0,0.4,68,0.00,,,0.00,WUHU216HW,2013-05-02 09:49:00,
2013-05-02 05:54:00,44.6,35.1,29.92,South,180,0.0,0.4,69,0.00,,,0.00,WUHU216HW,2013-05-02 09:54:00,
2013-05-02 05:59:00,44.3,35.1,29.92,South,180,0.0,0.0,70,0.00,,,0.00,WUHU216HW,2013-05-02 09:59:00,
2013-05-02 06:04:00,44.1,36.0,29.92,South,180,0.0,1.1,73,0.00,,,0.00,WUHU216HW,2013-05-02 10:04:00,
2013-05-02 06:09:00,44.3,35.8,29.92,South,180,0.0,1.1,72,0.00,,,0.00,WUHU216HW,2013-05-02 10:09:00,
2013-05-02 06:14:00,44.3,35.8,29.93,South,180,0.0,0.4,72,0.00,,,0.00,WUHU216HW,2013-05-02 10:14:00,
2013-05-02 06:19:00,44.3,35.8,29.92,South,180,0.0,0.0,72,0.00,,,0.00,WUHU216HW,2013-05-02 10:19:00,
2013-05-02 06:25:00,45.2,37.4,29.92,South,180,0.0,0.0,74,0.00,,,0.00,WUHU216HW,2013-05-02 10:25:00,
2013-05-02 06:30:00,47.0,39.2,29.92,South,180,0.0,0.0,74,0.00,,,0.00,WUHU216HW,2013-05-02 10:30:00,
2013-05-02 06:35:00,49.3,40.7,29.92,South,180,0.0,0.0,72,0.00,,,0.00,WUHU216HW,2013-05-02 10:35:00,
2013-05-02 06:40:00,52.2,43.1,29.92,SW,225,0.0,0.0,71,0.00,,,0.00,WUHU216HW,2013-05-02 10:40:00,
2013-05-02 06:45:00,54.9,44.6,29.93,SW,225,0.0,0.0,68,0.00,,,0.00,WUHU216HW,2013-05-02 10:45:00,
2013-05-02 06:50:00,57.4,45.3,29.93,SW,225,0.0,0.0,64,0.00,,,0.00,WUHU216HW,2013-05-02 10:50:00,
2013-05-02 06:55:00,59.8,46.7,29.93,SW,225,0.0,0.0,62,0.00,,,0.00,WUHU216HW,2013-05-02 10:55:00,
2013-05-02 07:00:00,62.5,47.4,29.93,SW,225,0.0,0.0,58,0.00,,,0.00,WUHU216HW,2013-05-02 11:00:00,
2013-05-02 07:05:00,64.3,47.6,29.94,SW,225,0.0,0.0,55,0.00,,,0.00,WUHU216HW,2013-05-02 11:05:00,
2013-05-02 07:10:00,66.4,48.3,29.94,SW,225,0.0,0.0,52,0.00,,,0.00,WUHU216HW,2013-05-02 11:10:00,
2013-05-02 07:16:00,68.0,48.2,29.94,SW,225,0.0,0.0,49,0.00,,,0.00,WUHU216HW,2013-05-02 11:16:00,
2013-05-02 07:21:00,68.8,47.1,29.94,SSE,158,0.2,0.2,46,0.00,,,0.00,WUHU216HW,2013-05-02 11:21:00,
2013-05-02 07:26:00,68.6,46.3,29.94,SE,135,0.0,0.4,45,0.00,,,0.00,WUHU216HW,2013-05-02 11:26:00,
2013-05-02 07:31:00,68.4,46.2,29.94,ENE,68,0.0,0.7,45,0.00,,,0.00,WUHU216HW,2013-05-02 11:31:00,
2013-05-02 07:36:00,68.8,46.4,29.94,ENE,68,0.0,0.7,45,0.00,,,0.00,WUHU216HW,2013-05-02 11:36:00,
2013-05-02 07:41:00,68.9,47.3,29.94,NNE,23,0.7,0.7,46,0.00,,,0.00,WUHU216HW,2013-05-02 11:41:00,
2013-05-02 07:46:00,70.6,47.5,29.94,East,90,0.7,1.1,44,0.00,,,0.00,WUHU216HW,2013-05-02 11:46:00,
2013-05-02 07:51:00,70.6,46.9,29.94,ENE,68,0.7,1.8,43,0.00,,,0.00,WUHU216HW,2013-05-02 11:51:00,
2013-05-02 07:56:00,69.3,46.4,29.94,North,0,0.0,1.8,44,0.00,,,0.00,WUHU216HW,2013-05-02 11:56:00,
2013-05-02 08:01:00,69.5,46.5,29.94,NE,45,0.4,1.3,44,0.00,,,0.00,WUHU216HW,2013-05-02 12:01:00,
2013-05-02 08:06:00,70.7,47.6,29.94,North,0,0.4,0.7,44,0.00,,,0.00,WUHU216HW,2013-05-02 12:06:00,
2013-05-02 08:11:00,70.9,46.6,29.94,ESE,113,0.0,1.8,42,0.00,,,0.00,WUHU216HW,2013-05-02 12:11:00,
2013-05-02 08:17:00,71.1,46.2,29.94,East,90,0.4,1.8,41,0.00,,,0.00,WUHU216HW,2013-05-02 12:17:00,
2013-05-02 08:22:00,71.5,46.5,29.94,ESE,113,1.3,1.8,41,0.00,,,0.00,WUHU216HW,2013-05-02 12:22:00,
2013-05-02 08:27:00,71.5,46.5,29.94,SSE,158,0.4,1.8,41,0.00,,,0.00,WUHU216HW,2013-05-02 12:27:00,
2013-05-02 08:32:00,70.9,46.6,29.94,SW,225,0.4,1.8,42,0.00,,,0.00,WUHU216HW,2013-05-02 12:32:00,
2013-05-02 08:37:00,71.6,47.3,29.94,ESE,113,0.2,2.2,42,0.00,,,0.00,WUHU216HW,2013-05-02 12:37:00,
2013-05-02 08:42:00,72.7,47.6,29.94,SSW,203,1.1,2.2,41,0.00,,,0.00,WUHU216HW,2013-05-02 12:42:00,
2013-05-02 08:47:00,73.8,48.6,29.94,SSE,158,0.0,1.6,41,0.00,,,0.00,WUHU216HW,2013-05-02 12:47:00,
2013-05-02 08:53:00,74.7,48.1,29.94,ESE,113,0.2,2.2,39,0.00,,,0.00,WUHU216HW,2013-05-02 12:53:00,
2013-05-02 08:58:00,74.5,47.9,29.94,ENE,68,1.6,2.2,39,0.00,,,0.00,WUHU216HW,2013-05-02 12:58:00,
2013-05-02 09:03:00,73.6,46.4,29.94,East,90,2.5,2.5,38,0.00,,,0.00,WUHU216HW,2013-05-02 13:03:00,
2013-05-02 09:08:00,72.9,47.3,29.94,ESE,113,0.9,2.5,40,0.00,,,0.00,WUHU216HW,2013-05-02 13:08:00,
2013-05-02 09:13:00,72.5,46.9,29.94,ENE,68,2.5,3.4,40,0.00,,,0.00,WUHU216HW,2013-05-02 13:13:00,
2013-05-02 09:18:00,72.5,46.9,29.94,ENE,68,2.5,3.4,40,0.00,,,0.00,WUHU216HW,2013-05-02 13:18:00,
2013-05-02 09:23:00,72.5,46.9,29.94,ENE,68,1.8,2.9,40,0.00,,,0.00,WUHU216HW,2013-05-02 13:23:00,
2013-05-02 09:29:00,72.4,46.7,29.94,ENE,68,3.4,3.4,40,0.00,,,0.00,WUHU216HW,2013-05-02 13:29:00,
2013-05-02 09:34:00,71.5,45.9,29.93,NE,45,1.6,3.4,40,0.00,,,0.00,WUHU216HW,2013-05-02 13:34:00,
2013-05-02 09:39:00,71.3,46.4,29.94,SSE,158,1.8,2.9,41,0.00,,,0.00,WUHU216HW,2013-05-02 13:39:00,
2013-05-02 09:44:00,72.0,47.0,29.93,SE,135,1.6,3.6,41,0.00,,,0.00,WUHU216HW,2013-05-02 13:44:00,
2013-05-02 09:49:00,72.5,46.9,29.94,SSW,203,1.6,3.6,40,0.00,,,0.00,WUHU216HW,2013-05-02 13:49:00,
2013-05-02 09:54:00,73.1,46.6,29.93,ENE,68,0.0,3.4,39,0.00,,,0.00,WUHU216HW,2013-05-02 13:54:00,
2013-05-02 09:59:00,73.4,46.2,29.93,NE,45,0.7,3.6,38,0.00,,,0.00,WUHU216HW,2013-05-02 13:59:00,
2013-05-02 10:04:00,74.0,46.7,29.93,SSW,203,1.1,3.6,38,0.00,,,0.00,WUHU216HW,2013-05-02 14:04:00,
2013-05-02 10:09:00,74.7,47.4,29.93,ESE,113,0.9,3.1,38,0.00,,,0.00,WUHU216HW,2013-05-02 14:09:00,
2013-05-02 10:15:00,74.5,44.9,29.93,ENE,68,2.7,3.1,35,0.00,,,0.00,WUHU216HW,2013-05-02 14:15:00,
2013-05-02 10:20:00,73.8,45.7,29.93,ENE,68,0.9,4.0,37,0.00,,,0.00,WUHU216HW,2013-05-02 14:20:00,
2013-05-02 10:25:00,73.6,43.3,29.93,SSE,158,3.1,4.0,34,0.00,,,0.00,WUHU216HW,2013-05-02 14:25:00,
2013-05-02 10:30:00,74.2,44.6,29.93,SSW,203,1.8,3.4,35,0.00,,,0.00,WUHU216HW,2013-05-02 14:30:00,
2013-05-02 10:35:00,74.9,45.2,29.93,SSW,203,2.0,3.6,35,0.00,,,0.00,WUHU216HW,2013-05-02 14:35:00,
2013-05-02 10:40:00,75.6,45.1,29.93,SW,225,1.3,3.6,34,0.00,,,0.00,WUHU216HW,2013-05-02 14:40:00,
2013-05-02 10:45:00,75.8,44.6,29.93,SSE,158,4.3,4.3,33,0.00,,,0.00,WUHU216HW,2013-05-02 14:45:00,
2013-05-02 10:50:00,76.3,45.0,29.93,East,90,0.4,4.3,33,0.00,,,0.00,WUHU216HW,2013-05-02 14:50:00,
2013-05-02 10:55:00,76.9,44.0,29.92,NNW,338,0.4,4.0,31,0.00,,,0.00,WUHU216HW,2013-05-02 14:55:00,
2013-05-02 11:01:00,77.0,44.1,29.92,South,180,2.5,4.7,31,0.00,,,0.00,WUHU216HW,2013-05-02 15:01:00,
2013-05-02 11:06:00,77.4,44.5,29.92,SW,225,1.1,4.7,31,0.00,,,0.00,WUHU216HW,2013-05-02 15:06:00,
2013-05-02 11:11:00,77.9,44.1,29.92,East,90,1.6,4.7,30,0.00,,,0.00,WUHU216HW,2013-05-02 15:11:00,
2013-05-02 11:16:00,78.5,43.5,29.92,NE,45,1.8,3.8,29,0.00,,,0.00,WUHU216HW,2013-05-02 15:16:00,
2013-05-02 11:21:00,77.6,42.8,29.92,SSW,203,2.7,3.8,29,0.00,,,0.00,WUHU216HW,2013-05-02 15:21:00,
2013-05-02 11:26:00,77.8,42.9,29.91,WSW,248,1.1,4.0,29,0.00,,,0.00,WUHU216HW,2013-05-02 15:26:00,
2013-05-02 11:31:00,78.5,43.5,29.92,SW,225,1.8,4.9,29,0.00,,,0.00,WUHU216HW,2013-05-02 15:31:00,
2013-05-02 11:36:00,79.2,44.1,29.91,WSW,248,1.3,4.9,29,0.00,,,0.00,WUHU216HW,2013-05-02 15:36:00,
2013-05-02 11:41:00,79.9,44.7,29.91,SSW,203,4.3,4.3,29,0.00,,,0.00,WUHU216HW,2013-05-02 15:41:00,
2013-05-02 11:46:00,80.1,39.7,29.90,ENE,68,2.0,4.3,24,0.00,,,0.00,WUHU216HW,2013-05-02 15:46:00,
2013-05-02 11:52:00,78.8,39.6,29.90,ENE,68,0.4,3.6,25,0.00,,,0.00,WUHU216HW,2013-05-02 15:52:00,
2013-05-02 11:57:00,79.0,42.9,29.89,ESE,113,1.6,4.5,28,0.00,,,0.00,WUHU216HW,2013-05-02 15:57:00,
2013-05-02 12:02:00,79.7,43.6,29.89,North,0,0.0,4.5,28,0.00,,,0.00,WUHU216HW,2013-05-02 16:02:00,
2013-05-02 12:07:00,80.3,41.9,29.89,West,270,1.8,1.8,26,0.00,,,0.00,WUHU216HW,2013-05-02 16:07:00,
2013-05-02 12:12:00,80.8,42.4,29.89,SSW,203,3.6,3.6,26,0.00,,,0.00,WUHU216HW,2013-05-02 16:12:00,
2013-05-02 12:17:00,81.2,42.7,29.89,East,90,2.0,8.7,26,0.00,,,0.00,WUHU216HW,2013-05-02 16:17:00,
2013-05-02 12:22:00,81.4,42.8,29.89,SSW,203,0.4,8.7,26,0.00,,,0.00,WUHU216HW,2013-05-02 16:22:00,
2013-05-02 12:27:00,81.7,43.1,29.89,SW,225,1.8,6.0,26,0.00,,,0.00,WUHU216HW,2013-05-02 16:27:00,
2013-05-02 12:33:00,82.3,43.6,29.88,SSW,203,2.9,5.4,26,0.00,,,0.00,WUHU216HW,2013-05-02 16:33:00,
2013-05-02 12:37:00,81.7,40.0,29.89,ENE,68,0.7,5.8,23,0.00,,,0.00,WUHU216HW,2013-05-02 16:37:00,
2013-05-02 12:43:00,81.4,41.8,29.88,WSW,248,0.4,5.8,25,0.00,,,0.00,WUHU216HW,2013-05-02 16:43:00,
2013-05-02 12:48:00,82.3,42.5,29.88,ENE,68,3.4,4.0,25,0.00,,,0.00,WUHU216HW,2013-05-02 16:48:00,
2013-05-02 12:53:00,82.3,40.4,29.88,ENE,68,4.5,4.5,23,0.00,,,0.00,WUHU216HW,2013-05-02 16:53:00,
2013-05-02 12:58:00,81.4,40.8,29.88,NE,45,2.0,6.0,24,0.00,,,0.00,WUHU216HW,2013-05-02 16:58:00,
2013-05-02 13:03:00,81.0,41.5,29.87,NE,45,0.4,6.0,25,0.00,,,0.00,WUHU216HW,2013-05-02 17:03:00,
2013-05-02 13:08:00,81.9,41.2,29.87,NE,45,1.8,5.4,24,0.00,,,0.00,WUHU216HW,2013-05-02 17:08:00,
2013-05-02 13:13:00,82.1,40.3,29.87,South,180,1.1,5.4,23,0.00,,,0.00,WUHU216HW,2013-05-02 17:13:00,
2013-05-02 13:18:00,83.2,41.1,29.87,ESE,113,4.0,4.3,23,0.00,,,0.00,WUHU216HW,2013-05-02 17:18:00,
2013-05-02 13:24:00,83.7,42.7,29.87,ESE,113,2.7,4.3,24,0.00,,,0.00,WUHU216HW,2013-05-02 17:24:00,
2013-05-02 13:29:00,83.5,42.5,29.87,East,90,0.7,3.4,24,0.00,,,0.00,WUHU216HW,2013-05-02 17:29:00,
2013-05-02 13:34:00,84.2,41.1,29.86,East,90,1.6,2.7,22,0.00,,,0.00,WUHU216HW,2013-05-02 17:34:00,
2013-05-02 13:39:00,83.9,41.8,29.86,East,90,1.1,2.5,23,0.00,,,0.00,WUHU216HW,2013-05-02 17:39:00,
2013-05-02 13:44:00,83.9,39.7,29.86,SE,135,3.6,5.1,21,0.00,,,0.00,WUHU216HW,2013-05-02 17:44:00,
2013-05-02 13:49:00,83.5,42.5,29.86,SE,135,1.8,5.1,24,0.00,,,0.00,WUHU216HW,2013-05-02 17:49:00,
2013-05-02 13:54:00,83.7,40.6,29.86,ENE,68,3.4,4.9,22,0.00,,,0.00,WUHU216HW,2013-05-02 17:54:00,
2013-05-02 13:59:00,83.3,41.3,29.86,East,90,3.4,3.4,23,0.00,,,0.00,WUHU216HW,2013-05-02 17:59:00,
2013-05-02 14:05:00,83.7,40.6,29.86,South,180,3.6,4.0,22,0.00,,,0.00,WUHU216HW,2013-05-02 18:05:00,
2013-05-02 14:10:00,84.8,43.6,29.86,East,90,2.2,4.0,24,0.00,,,0.00,WUHU216HW,2013-05-02 18:10:00,
2013-05-02 14:15:00,84.8,41.5,29.86,ESE,113,1.6,6.7,22,0.00,,,0.00,WUHU216HW,2013-05-02 18:15:00,
2013-05-02 14:20:00,83.2,40.2,29.86,ENE,68,2.5,6.7,22,0.00,,,0.00,WUHU216HW,2013-05-02 18:20:00,
2013-05-02 14:25:00,82.1,40.3,29.85,NE,45,2.5,5.4,23,0.00,,,0.00,WUHU216HW,2013-05-02 18:25:00,
2013-05-02 14:30:00,82.1,39.2,29.85,West,270,1.8,5.4,22,0.00,,,0.00,WUHU216HW,2013-05-02 18:30:00,
2013-05-02 14:35:00,82.8,39.8,29.85,ENE,68,2.7,3.4,22,0.00,,,0.00,WUHU216HW,2013-05-02 18:35:00,
2013-05-02 14:40:00,82.4,40.6,29.85,SSE,158,1.1,4.9,23,0.00,,,0.00,WUHU216HW,2013-05-02 18:40:00,
2013-05-02 14:45:00,81.9,41.2,29.85,North,0,1.8,5.6,24,0.00,,,0.00,WUHU216HW,2013-05-02 18:45:00,
2013-05-02 14:51:00,82.1,40.3,29.85,NNE,23,2.9,8.3,23,0.00,,,0.00,WUHU216HW,2013-05-02 18:51:00,
2013-05-02 14:56:00,81.7,39.0,29.85,ENE,68,4.5,8.3,22,0.00,,,0.00,WUHU216HW,2013-05-02 18:56:00,
2013-05-02 15:01:00,81.4,40.8,29.85,SE,135,3.4,6.9,24,0.00,,,0.00,WUHU216HW,2013-05-02 19:01:00,
2013-05-02 15:06:00,82.3,40.4,29.85,NE,45,3.6,6.9,23,0.00,,,0.00,WUHU216HW,2013-05-02 19:06:00,
2013-05-02 15:11:00,82.6,41.8,29.85,East,90,0.7,5.6,24,0.00,,,0.00,WUHU216HW,2013-05-02 19:11:00,
2013-05-02 15:16:00,83.5,42.5,29.85,NNE,23,3.1,5.6,24,0.00,,,0.00,WUHU216HW,2013-05-02 19:16:00,
2013-05-02 15:21:00,83.0,40.0,29.84,NE,45,1.1,8.3,22,0.00,,,0.00,WUHU216HW,2013-05-02 19:21:00,
2013-05-02 15:26:00,83.3,41.3,29.84,SW,225,2.5,8.3,23,0.00,,,0.00,WUHU216HW,2013-05-02 19:26:00,
2013-05-02 15:31:00,83.9,40.7,29.84,SSE,158,0.9,6.0,22,0.00,,,0.00,WUHU216HW,2013-05-02 19:31:00,
2013-05-02 15:36:00,84.2,42.0,29.84,East,90,4.5,5.4,23,0.00,,,0.00,WUHU216HW,2013-05-02 19:36:00,
2013-05-02 15:41:00,83.5,39.3,29.84,North,0,3.6,6.0,21,0.00,,,0.00,WUHU216HW,2013-05-02 19:41:00,
2013-05-02 15:46:00,81.7,37.9,29.84,ENE,68,6.3,7.4,21,0.00,,,0.00,WUHU216HW,2013-05-02 19:46:00,
2013-05-02 15:51:00,79.9,38.5,29.84,NNE,23,3.4,7.4,23,0.00,,,0.00,WUHU216HW,2013-05-02 19:51:00,
2013-05-02 15:57:00,78.8,38.5,29.84,NNE,23,4.7,6.3,24,0.00,,,0.00,WUHU216HW,2013-05-02 19:57:00,
2013-05-02 16:02:00,78.1,39.1,29.84,North,0,1.8,4.7,25,0.00,,,0.00,WUHU216HW,2013-05-02 20:02:00,
2013-05-02 16:07:00,77.8,38.7,29.84,SE,135,1.1,5.4,25,0.00,,,0.00,WUHU216HW,2013-05-02 20:07:00,
2013-05-02 16:12:00,78.1,40.1,29.84,SE,135,2.9,5.4,26,0.00,,,0.00,WUHU216HW,2013-05-02 20:12:00,
2013-05-02 16:17:00,77.9,40.0,29.84,East,90,3.4,5.1,26,0.00,,,0.00,WUHU216HW,2013-05-02 20:17:00,
2013-05-02 16:22:00,76.9,39.1,29.85,ENE,68,8.5,8.5,26,0.00,,,0.00,WUHU216HW,2013-05-02 20:22:00,
2013-05-02 16:27:00,74.7,39.3,29.85,NE,45,4.3,8.7,28,0.00,,,0.00,WUHU216HW,2013-05-02 20:27:00,
2013-05-02 16:32:00,73.8,40.5,29.85,NNW,338,2.5,8.7,30,0.00,,,0.00,WUHU216HW,2013-05-02 20:32:00,
2013-05-02 16:37:00,74.3,40.0,29.86,East,90,3.4,8.5,29,0.00,,,0.00,WUHU216HW,2013-05-02 20:37:00,
2013-05-02 16:43:00,74.7,41.3,29.86,WSW,248,2.5,8.5,30,0.00,,,0.00,WUHU216HW,2013-05-02 20:43:00,
2013-05-02 16:48:00,74.5,41.1,29.87,ENE,68,1.8,6.7,30,0.00,,,0.00,WUHU216HW,2013-05-02 20:48:00,
2013-05-02 16:53:00,73.6,44.1,29.87,NE,45,3.4,9.8,35,0.00,,,0.00,WUHU216HW,2013-05-02 20:53:00,
2013-05-02 16:58:00,72.5,43.1,29.88,ENE,68,1.8,9.8,35,0.00,,,0.00,WUHU216HW,2013-05-02 20:58:00,
2013-05-02 17:03:00,71.6,44.7,29.88,ENE,68,3.4,10.3,38,0.00,,,0.00,WUHU216HW,2013-05-02 21:03:00,
2013-05-02 17:08:00,70.7,42.3,29.88,ENE,68,7.8,10.3,36,0.00,,,0.00,WUHU216HW,2013-05-02 21:08:00,
2013-05-02 17:13:00,70.2,40.3,29.89,NNE,23,6.9,12.1,34,0.00,,,0.00,WUHU216HW,2013-05-02 21:13:00,
2013-05-02 17:18:00,70.0,39.4,29.89,West,270,2.5,12.1,33,0.00,,,0.00,WUHU216HW,2013-05-02 21:18:00,
2013-05-02 17:24:00,70.2,40.3,29.89,ENE,68,3.6,5.6,34,0.00,,,0.00,WUHU216HW,2013-05-02 21:24:00,
2013-05-02 17:29:00,70.0,44.7,29.89,North,0,3.4,8.1,40,0.00,,,0.00,WUHU216HW,2013-05-02 21:29:00,
2013-05-02 17:34:00,68.0,44.0,29.90,ENE,68,2.5,10.3,42,0.00,,,0.00,WUHU216HW,2013-05-02 21:34:00,
2013-05-02 17:39:00,66.6,42.8,29.90,SSW,203,2.0,10.3,42,0.00,,,0.00,WUHU216HW,2013-05-02 21:39:00,
2013-05-02 17:44:00,65.5,43.5,29.91,NNE,23,4.7,7.6,45,0.00,,,0.00,WUHU216HW,2013-05-02 21:44:00,
2013-05-02 17:49:00,64.4,43.0,29.91,North,0,4.7,8.5,46,0.00,,,0.00,WUHU216HW,2013-05-02 21:49:00,
2013-05-02 17:54:00,63.5,42.2,29.92,East,90,2.5,8.5,46,0.00,,,0.00,WUHU216HW,2013-05-02 21:54:00,
2013-05-02 17:59:00,63.0,42.3,29.92,ENE,68,1.8,5.8,47,0.00,,,0.00,WUHU216HW,2013-05-02 21:59:00,
2013-05-02 18:04:00,62.5,43.0,29.92,NE,45,4.5,5.8,49,0.00,,,0.00,WUHU216HW,2013-05-02 22:04:00,
2013-05-02 18:09:00,61.7,42.9,29.92,NE,45,1.8,6.3,50,0.00,,,0.00,WUHU216HW,2013-05-02 22:09:00,
2013-05-02 18:14:00,60.8,43.1,29.93,NE,45,5.8,6.7,52,0.00,,,0.00,WUHU216HW,2013-05-02 22:14:00,
2013-05-02 18:19:00,59.8,42.6,29.93,NE,45,7.2,9.8,53,0.00,,,0.00,WUHU216HW,2013-05-02 22:19:00,
2013-05-02 18:24:00,58.7,42.0,29.93,NW,315,3.8,11.0,54,0.00,,,0.00,WUHU216HW,2013-05-02 22:24:00,
2013-05-02 18:30:00,58.3,41.2,29.93,NNW,338,2.2,11.0,53,0.00,,,0.00,WUHU216HW,2013-05-02 22:30:00,
2013-05-02 18:35:00,58.1,41.1,29.94,NE,45,2.5,6.3,53,0.00,,,0.00,WUHU216HW,2013-05-02 22:35:00,
2013-05-02 18:40:00,58.0,41.0,29.94,ENE,68,2.2,6.3,53,0.00,,,0.00,WUHU216HW,2013-05-02 22:40:00,
2013-05-02 18:45:00,57.6,41.0,29.94,NNE,23,5.1,5.1,54,0.00,,,0.00,WUHU216HW,2013-05-02 22:45:00,
2013-05-02 18:50:00,56.7,40.2,29.95,ENE,68,4.5,8.5,54,0.00,,,0.00,WUHU216HW,2013-05-02 22:50:00,
2013-05-02 18:55:00,56.3,40.8,29.94,SE,135,1.8,8.5,56,0.00,,,0.00,WUHU216HW,2013-05-02 22:55:00,
2013-05-02 19:00:00,56.0,41.4,29.95,ENE,68,5.1,6.3,58,0.00,,,0.00,WUHU216HW,2013-05-02 23:00:00,
2013-05-02 19:06:00,55.4,41.3,29.95,ENE,68,3.1,7.8,59,0.00,,,0.00,WUHU216HW,2013-05-02 23:06:00,
2013-05-02 19:11:00,55.1,41.0,29.96,NNE,23,3.6,7.8,59,0.00,,,0.00,WUHU216HW,2013-05-02 23:11:00,
2013-05-02 19:16:00,54.7,40.7,29.96,North,0,2.5,6.9,59,0.00,,,0.00,WUHU216HW,2013-05-02 23:16:00,
2013-05-02 19:21:00,54.4,39.9,29.96,NNE,23,3.1,7.4,58,0.00,,,0.00,WUHU216HW,2013-05-02 23:21:00,
2013-05-02 19:26:00,53.8,38.9,29.96,NE,45,5.6,8.5,57,0.00,,,0.00,WUHU216HW,2013-05-02 23:26:00,
2013-05-02 19:31:00,53.5,38.5,29.97,East,90,4.0,8.5,57,0.00,,,0.00,WUHU216HW,2013-05-02 23:31:00,
2013-05-02 19:36:00,53.1,38.3,29.97,NE,45,2.7,5.4,57,0.00,,,0.00,WUHU216HW,2013-05-02 23:36:00,
2013-05-02 19:41:00,52.9,37.6,29.97,ENE,68,2.7,5.4,56,0.00,,,0.00,WUHU216HW,2013-05-02 23:41:00,
2013-05-02 19:46:00,52.7,37.9,29.97,ESE,113,1.1,5.1,57,0.00,,,0.00,WUHU216HW,2013-05-02 23:46:00,
2013-05-02 19:51:00,52.7,37.5,29.97,North,0,1.6,5.1,56,0.00,,,0.00,WUHU216HW,2013-05-02 23:51:00,
2013-05-02 19:57:00,52.4,37.1,29.98,ESE,113,5.1,5.8,56,0.00,,,0.00,WUHU216HW,2013-05-02 23:57:00,
2013-05-02 20:02:00,52.4,37.1,29.98,NNE,23,3.4,5.8,56,0.00,,,0.00,WUHU216HW,2013-05-03 00:02:00,
2013-05-02 20:07:00,52.2,37.4,29.98,NW,315,3.1,4.7,57,0.00,,,0.00,WUHU216HW,2013-05-03 00:07:00,
2013-05-02 20:12:00,51.8,37.0,29.99,NE,45,2.2,4.7,57,0.00,,,0.00,WUHU216HW,2013-05-03 00:12:00,
2013-05-02 20:17:00,51.3,36.1,29.98,NE,45,2.0,7.6,56,0.00,,,0.00,WUHU216HW,2013-05-03 00:17:00,
2013-05-02 20:22:00,51.1,35.5,29.99,North,0,1.1,7.6,55,0.00,,,0.00,WUHU216HW,2013-05-03 00:22:00,
2013-05-02 20:27:00,50.8,35.1,29.99,North,0,0.9,6.3,55,0.00,,,0.00,WUHU216HW,2013-05-03 00:27:00,
2013-05-02 20:32:00,50.8,34.7,29.99,NNE,23,2.5,6.7,54,0.00,,,0.00,WUHU216HW,2013-05-03 00:32:00,
2013-05-02 20:37:00,50.4,34.4,29.99,NE,45,6.7,6.7,54,0.00,,,0.00,WUHU216HW,2013-05-03 00:37:00,
2013-05-02 20:42:00,50.2,33.8,29.99,ENE,68,6.3,6.7,53,0.00,,,0.00,WUHU216HW,2013-05-03 00:42:00,
2013-05-02 20:48:00,50.2,33.8,30.00,ESE,113,4.0,6.3,53,0.00,,,0.00,WUHU216HW,2013-05-03 00:48:00,
2013-05-02 20:53:00,50.0,33.6,30.00,ESE,113,1.1,5.6,53,0.00,,,0.00,WUHU216HW,2013-05-03 00:53:00,
2013-05-02 20:58:00,50.0,34.0,29.99,ENE,68,4.0,4.7,54,0.00,,,0.00,WUHU216HW,2013-05-03 00:58:00,
2013-05-02 21:03:00,50.0,34.0,30.00,NNE,23,1.8,4.9,54,0.00,,,0.00,WUHU216HW,2013-05-03 01:03:00,
2013-05-02 21:08:00,49.9,34.3,30.00,ENE,68,1.6,4.9,55,0.00,,,0.00,WUHU216HW,2013-05-03 01:08:00,
2013-05-02 21:13:00,49.7,34.1,30.00,ENE,68,1.3,4.9,55,0.00,,,0.00,WUHU216HW,2013-05-03 01:13:00,
2013-05-02 21:18:00,49.7,34.1,30.00,ESE,113,0.2,4.9,55,0.00,,,0.00,WUHU216HW,2013-05-03 01:18:00,
2013-05-02 21:24:00,49.7,34.1,30.00,East,90,2.2,2.2,55,0.00,,,0.00,WUHU216HW,2013-05-03 01:24:00,
2013-05-02 21:29:00,49.5,34.8,30.00,East,90,1.6,4.0,57,0.00,,,0.00,WUHU216HW,2013-05-03 01:29:00,
2013-05-02 21:34:00,49.5,34.8,30.00,East,90,1.1,4.0,57,0.00,,,0.00,WUHU216HW,2013-05-03 01:34:00,
2013-05-02 21:39:00,49.5,34.8,29.99,ENE,68,0.7,4.0,57,0.00,,,0.00,WUHU216HW,2013-05-03 01:39:00,
2013-05-02 21:44:00,49.3,34.2,29.99,NNE,23,0.2,2.5,56,0.00,,,0.00,WUHU216HW,2013-05-03 01:44:00,
2013-05-02 21:49:00,49.3,34.2,29.99,South,180,0.7,2.5,56,0.00,,,0.00,WUHU216HW,2013-05-03 01:49:00,
2013-05-02 21:54:00,49.3,34.2,29.99,ENE,68,0.0,1.6,56,0.00,,,0.00,WUHU216HW,2013-05-03 01:54:00,
2013-05-02 21:59:00,49.1,34.1,29.99,SSE,158,0.0,1.1,56,0.00,,,0.00,WUHU216HW,2013-05-03 01:59:00,
2013-05-02 22:04:00,49.0,33.9,29.99,SW,225,0.4,1.1,56,0.00,,,0.00,WUHU216HW,2013-05-03 02:04:00,
2013-05-02 22:09:00,49.0,33.9,29.99,SW,225,0.0,0.9,56,0.00,,,0.00,WUHU216HW,2013-05-03 02:09:00,
2013-05-02 22:15:00,49.0,34.4,29.99,SSE,158,0.0,1.1,57,0.00,,,0.00,WUHU216HW,2013-05-03 02:15:00,
2013-05-02 22:20:00,49.0,34.4,29.99,SSE,158,0.0,1.1,57,0.00,,,0.00,WUHU216HW,2013-05-03 02:20:00,
2013-05-02 22:25:00,49.0,34.4,29.99,East,90,0.0,0.9,57,0.00,,,0.00,WUHU216HW,2013-05-03 02:25:00,
2013-05-02 22:30:00,48.8,34.7,29.99,NE,45,0.7,1.1,58,0.00,,,0.00,WUHU216HW,2013-05-03 02:30:00,
2013-05-02 22:35:00,48.8,35.1,29.99,NE,45,0.4,1.1,59,0.00,,,0.00,WUHU216HW,2013-05-03 02:35:00,
2013-05-02 22:40:00,48.8,35.1,29.99,NE,45,0.4,1.1,59,0.00,,,0.00,WUHU216HW,2013-05-03 02:40:00,
2013-05-02 22:45:00,48.6,34.9,29.99,ESE,113,0.4,1.1,59,0.00,,,0.00,WUHU216HW,2013-05-03 02:45:00,
2013-05-02 22:50:00,48.6,34.9,29.99,NNE,23,0.0,1.1,59,0.00,,,0.00,WUHU216HW,2013-05-03 02:50:00,
2013-05-02 22:56:00,48.6,34.9,29.99,NE,45,0.4,1.3,59,0.00,,,0.00,WUHU216HW,2013-05-03 02:56:00,
2013-05-02 23:01:00,48.4,34.8,29.99,ENE,68,0.0,1.6,59,0.00,,,0.00,WUHU216HW,2013-05-03 03:01:00,
2013-05-02 23:06:00,48.2,35.5,29.99,NE,45,1.3,2.2,61,0.00,,,0.00,WUHU216HW,2013-05-03 03:06:00,
2013-05-02 23:11:00,48.1,34.5,29.99,NE,45,0.0,2.2,59,0.00,,,0.00,WUHU216HW,2013-05-03 03:11:00,
2013-05-02 23:16:00,47.7,34.6,29.99,NE,45,0.4,1.8,60,0.00,,,0.00,WUHU216HW,2013-05-03 03:16:00,
2013-05-02 23:21:00,47.3,34.2,29.99,NNE,23,0.2,1.8,60,0.00,,,0.00,WUHU216HW,2013-05-03 03:21:00,
2013-05-02 23:26:00,47.2,34.0,29.99,NNE,23,1.1,1.1,60,0.00,,,0.00,WUHU216HW,2013-05-03 03:26:00,
2013-05-02 23:31:00,47.2,34.4,29.99,NE,45,0.4,1.3,61,0.00,,,0.00,WUHU216HW,2013-05-03 03:31:00,
2013-05-02 23:36:00,47.2,34.4,30.00,NNE,23,0.0,1.3,61,0.00,,,0.00,WUHU216HW,2013-05-03 03:36:00,
2013-05-02 23:42:00,47.0,34.7,30.00,North,0,0.7,2.2,62,0.00,,,0.00,WUHU216HW,2013-05-03 03:42:00,
2013-05-02 23:47:00,46.8,34.0,30.00,NE,45,0.2,2.2,61,0.00,,,0.00,WUHU216HW,2013-05-03 03:47:00,
2013-05-02 23:52:00,46.8,34.8,29.99,NNW,338,0.4,1.8,63,0.00,,,0.00,WUHU216HW,2013-05-03 03:52:00,
2013-05-02 23:57:00,46.4,33.7,29.99,NE,45,0.0,1.8,61,0.00,,,0.00,WUHU216HW,2013-05-03 03:57:00,